When you browse on this site, cookies collect data to enhance your experience and personalize the content and advertising you see.
Visit our Privacy Policy to learn more. By continuing to use the site, you agree to this use of cookies and data.
  • In Hungary
  • List of Countries
  • For 7 days
  • Water Temperature
  • Satellite Maps
  • Weather Map
  • News
  • Weather Widgets
  • user-avatar
    Login

    Hourly Weather Romashkovo

    Today, 22 May, Wednesday

    Time Temperature Precipitation Wind Pressure Humidity
    00:00 +14°C° 0 mm 1 mps 737 mmHg 91%
    01:00 +14°C° 0 mm 1 mps 737 mmHg 92%
    02:00 +13°C° 0 mm 1 mps 737 mmHg 93%
    03:00 +13°C° 0 mm 1 mps 737 mmHg 93%
    04:00 +14°C° 0 mm 2 mps 736 mmHg 92%
    05:00 +14°C° 0 mm 2 mps 736 mmHg 91%
    06:00 +16°C° 0 mm 2 mps 736 mmHg 85%
    07:00 +17°C° 0 mm 2 mps 736 mmHg 79%
    08:00 +19°C° 0 mm 3 mps 736 mmHg 74%
    09:00 +20°C° 0.5 mm 2 mps 735 mmHg 73%
    10:00 +20°C° 0.5 mm 2 mps 735 mmHg 73%
    11:00 +21°C° 0.5 mm 2 mps 735 mmHg 72%
    12:00 +21°C° 1.4 mm 2 mps 734 mmHg 72%
    13:00 +23°C° 1.4 mm 2 mps 734 mmHg 72%
    14:00 +23°C° 1.4 mm 1 mps 734 mmHg 72%
    15:00 +23°C° 1.3 mm 1 mps 733 mmHg 74%
    16:00 +22°C° 1.3 mm 1 mps 733 mmHg 77%
    17:00 +22°C° 1.3 mm 1 mps 733 mmHg 80%
    18:00 +20°C° 0.1 mm 1 mps 733 mmHg 83%
    19:00 +19°C° 0.1 mm 1 mps 732 mmHg 87%
    20:00 +16°C° 0.1 mm 0 mps 732 mmHg 91%
    21:00 +15°C° 0 mm 0 mps 732 mmHg 91%
    22:00 +15°C° 0 mm 0 mps 732 mmHg 92%
    23:00 +14°C° 0 mm 0 mps 732 mmHg 92%

    Tomorrow, 23 May, Thursday

    Time Temperature Precipitation Wind Pressure Humidity
    00:00 +15°C° 0 mm 1 mps 732 mmHg 93%
    01:00 +14°C° 0 mm 1 mps 732 mmHg 93%
    02:00 +14°C° 0 mm 1 mps 732 mmHg 94%
    03:00 +14°C° 0 mm 1 mps 732 mmHg 94%
    04:00 +15°C° 0 mm 1 mps 731 mmHg 94%
    05:00 +15°C° 0 mm 1 mps 731 mmHg 94%
    06:00 +16°C° 0.3 mm 1 mps 731 mmHg 89%
    07:00 +18°C° 0.3 mm 2 mps 731 mmHg 85%
    08:00 +19°C° 0.3 mm 2 mps 731 mmHg 81%
    09:00 +22°C° 0.3 mm 1 mps 731 mmHg 74%
    10:00 +23°C° 0.3 mm 1 mps 731 mmHg 68%
    11:00 +25°C° 0.3 mm 1 mps 731 mmHg 61%
    12:00 +24°C° 1.7 mm 2 mps 731 mmHg 63%
    13:00 +24°C° 1.7 mm 2 mps 731 mmHg 66%
    14:00 +24°C° 1.7 mm 3 mps 731 mmHg 68%
    15:00 +24°C° 0.1 mm 3 mps 731 mmHg 69%
    16:00 +24°C° 0.1 mm 2 mps 731 mmHg 71%
    17:00 +24°C° 0.1 mm 2 mps 730 mmHg 72%
    18:00 +21°C° 0.1 mm 2 mps 731 mmHg 78%
    19:00 +19°C° 0.1 mm 2 mps 731 mmHg 83%
    20:00 +19°C° 0.1 mm 1 mps 731 mmHg 89%
    21:00 +18°C° 0 mm 1 mps 731 mmHg 91%
    22:00 +16°C° 0 mm 1 mps 731 mmHg 93%
    23:00 +15°C° 0 mm 1 mps 732 mmHg 94%

    Day after tomorrow, 24 May, Friday

    Time Temperature Precipitation Wind Pressure Humidity
    00:00 +15°C° 0 mm 2 mps 732 mmHg 95%
    01:00 +14°C° 0 mm 2 mps 732 mmHg 96%
    02:00 +14°C° 0 mm 2 mps 732 mmHg 97%
    03:00 +14°C° 0 mm 2 mps 732 mmHg 97%
    04:00 +14°C° 0 mm 2 mps 732 mmHg 97%
    05:00 +14°C° 0 mm 2 mps 733 mmHg 97%
    06:00 +15°C° 0 mm 2 mps 733 mmHg 95%
    07:00 +14°C° 0 mm 3 mps 733 mmHg 93%
    08:00 +16°C° 0 mm 3 mps 733 mmHg 91%
    09:00 +17°C° 0 mm 3 mps 733 mmHg 88%
    10:00 +18°C° 0 mm 3 mps 733 mmHg 84%
    11:00 +18°C° 0 mm 3 mps 733 mmHg 81%
    12:00 +20°C° 0.3 mm 3 mps 733 mmHg 77%
    13:00 +21°C° 0.3 mm 3 mps 733 mmHg 74%
    14:00 +22°C° 0.3 mm 3 mps 733 mmHg 71%
    15:00 +22°C° 0.3 mm 3 mps 733 mmHg 74%
    16:00 +21°C° 0.3 mm 3 mps 733 mmHg 77%
    17:00 +21°C° 0.3 mm 3 mps 733 mmHg 80%
    18:00 +20°C° 0.4 mm 3 mps 733 mmHg 84%
    19:00 +18°C° 0.4 mm 3 mps 733 mmHg 88%
    20:00 +17°C° 0.4 mm 3 mps 732 mmHg 92%
    21:00 +17°C° 0 mm 3 mps 732 mmHg 93%
    22:00 +16°C° 0 mm 3 mps 732 mmHg 94%
    23:00 +14°C° 0 mm 3 mps 732 mmHg 96%

    25 May, Saturday

    Time Temperature Precipitation Wind Pressure Humidity
    00:00 +14°C° 0.2 mm 3 mps 732 mmHg 96%
    01:00 +14°C° 0.2 mm 3 mps 732 mmHg 96%
    02:00 +14°C° 0.2 mm 3 mps 731 mmHg 96%
    03:00 +14°C° 0.2 mm 3 mps 731 mmHg 96%
    04:00 +14°C° 0.2 mm 3 mps 731 mmHg 96%
    05:00 +16°C° 0.2 mm 3 mps 731 mmHg 95%
    06:00 +16°C° 1 mm 3 mps 731 mmHg 93%
    07:00 +17°C° 1 mm 3 mps 731 mmHg 91%
    08:00 +17°C° 1 mm 3 mps 731 mmHg 89%
    09:00 +18°C° 0.7 mm 3 mps 731 mmHg 87%
    10:00 +19°C° 0.7 mm 3 mps 730 mmHg 85%
    11:00 +19°C° 0.7 mm 3 mps 730 mmHg 83%
    12:00 +20°C° 1 mm 2 mps 730 mmHg 80%
    13:00 +20°C° 1 mm 2 mps 730 mmHg 78%
    14:00 +21°C° 1 mm 2 mps 730 mmHg 75%
    15:00 +20°C° 1.1 mm 2 mps 730 mmHg 79%
    16:00 +19°C° 1.1 mm 2 mps 729 mmHg 83%
    17:00 +19°C° 1.1 mm 2 mps 729 mmHg 86%
    18:00 +18°C° 1.4 mm 2 mps 729 mmHg 89%
    19:00 +17°C° 1.4 mm 2 mps 729 mmHg 91%
    20:00 +14°C° 1.4 mm 3 mps 729 mmHg 93%
    21:00 +15°C° 0 mm 2 mps 729 mmHg 94%
    22:00 +14°C° 0 mm 2 mps 729 mmHg 95%
    23:00 +13°C° 0 mm 2 mps 729 mmHg 96%

    26 May, Sunday

    Time Temperature Precipitation Wind Pressure Humidity
    00:00 +12°C° 0 mm 2 mps 729 mmHg 96%
    01:00 +12°C° 0 mm 2 mps 729 mmHg 96%
    02:00 +10°C° 0 mm 2 mps 729 mmHg 95%
    03:00 +10°C° 0 mm 2 mps 729 mmHg 95%
    04:00 +10°C° 0 mm 2 mps 730 mmHg 94%
    05:00 +10°C° 0 mm 2 mps 730 mmHg 94%
    06:00 +12°C° 0 mm 2 mps 730 mmHg 90%
    07:00 +13°C° 0 mm 3 mps 730 mmHg 86%
    08:00 +14°C° 0 mm 3 mps 730 mmHg 82%
    09:00 +15°C° 0 mm 4 mps 730 mmHg 75%
    10:00 +15°C° 0 mm 4 mps 730 mmHg 68%
    11:00 +16°C° 0 mm 5 mps 730 mmHg 61%
    12:00 +16°C° 0 mm 5 mps 730 mmHg 61%
    13:00 +16°C° 0 mm 5 mps 729 mmHg 61%
    14:00 +16°C° 0 mm 5 mps 729 mmHg 60%
    15:00 +15°C° 0.1 mm 5 mps 729 mmHg 65%
    16:00 +14°C° 0.1 mm 5 mps 729 mmHg 70%
    17:00 +13°C° 0.1 mm 5 mps 729 mmHg 75%
    18:00 +12°C° 0 mm 4 mps 729 mmHg 77%
    19:00 +12°C° 0 mm 4 mps 729 mmHg 79%
    20:00 +11°C° 0 mm 3 mps 729 mmHg 81%
    21:00 +11°C° 0 mm 3 mps 729 mmHg 84%
    22:00 +10°C° 0 mm 4 mps 728 mmHg 87%
    23:00 +8°C° 0 mm 4 mps 728 mmHg 89%

    27 May, Monday

    Time Temperature Precipitation Wind Pressure Humidity
    00:00 +8°C° 0.2 mm 4 mps 728 mmHg 90%
    01:00 +8°C° 0.2 mm 4 mps 728 mmHg 92%
    02:00 +8°C° 0.2 mm 4 mps 728 mmHg 93%
    03:00 +8°C° 0.2 mm 5 mps 728 mmHg 93%
    04:00 +7°C° 0.2 mm 5 mps 728 mmHg 92%
    05:00 +7°C° 0.2 mm 5 mps 728 mmHg 92%
    06:00 +8°C° 0.2 mm 5 mps 728 mmHg 87%
    07:00 +8°C° 0.2 mm 6 mps 728 mmHg 81%
    08:00 +9°C° 0.2 mm 6 mps 728 mmHg 76%
    09:00 +9°C° 0.1 mm 7 mps 729 mmHg 75%
    10:00 +9°C° 0.1 mm 7 mps 729 mmHg 74%
    11:00 +9°C° 0.1 mm 7 mps 729 mmHg 73%
    12:00 +9°C° 0.1 mm 7 mps 730 mmHg 74%
    13:00 +9°C° 0.1 mm 7 mps 730 mmHg 74%
    14:00 +10°C° 0.1 mm 7 mps 731 mmHg 74%
    15:00 +10°C° 0.1 mm 6 mps 731 mmHg 74%
    16:00 +10°C° 0.1 mm 6 mps 731 mmHg 74%
    17:00 +10°C° 0.1 mm 5 mps 732 mmHg 74%
    18:00 +9°C° 0 mm 5 mps 732 mmHg 76%
    19:00 +10°C° 0 mm 4 mps 733 mmHg 79%
    20:00 +8°C° 0 mm 4 mps 733 mmHg 81%
    21:00 +7°C° 0 mm 4 mps 733 mmHg 84%
    22:00 +8°C° 0 mm 3 mps 734 mmHg 87%
    23:00 +7°C° 0 mm 3 mps 734 mmHg 90%
    Show more